Home   Weather   47°24'N, 9°37'E   Past weeks
Flag for Switzerland

Past Weather in 47°24'N, 9°37'E, Switzerland — Yesterday and Last 2 Weeks

Now
55 °F

Partly sunny.


Feels Like: 55 °F
Forecast: 63 / 51 °F
Wind: 5 mph from East

Location: Saint Gallen-Altenrhein

Current Time: Oct 21, 2019 at 9:50:04 am

Latest Report: Oct 21, 2019 at 9:20 am


Visibility: N/A

Pressure: 30.07 "Hg

Humidity: 94%

Dew Point: 54 °F

Location of 47°24'N, 9°37'ELocation

Past Weather in 47°24'N, 9°37'E — Graph

°F

47°24'N, 9°37'E Temperature Yesterday

Maximum temperature yesterday: 77 °F (at 3:20 pm)
Minimum temperature yesterday: 46 °F (at 3:20 am)
Average temperature yesterday: 61 °F

High & Low Weather Summary for the Past Weeks

 TemperatureHumidityPressure
High77 °F (Oct 20, 3:20 pm)100% (Oct 6, 8:20 am)30.21 "Hg (Oct 6, 8:20 am)
Low43 °F (Oct 12, 3:50 am)29% (Oct 14, 10:50 pm)29.71 "Hg (Oct 15, 10:50 am)
Average55 °F86%29.99 "Hg
* Reported Oct 6 8:20 am — Oct 21 8:20 am, 47°24'N, 9°37'E. Weather by CustomWeather, © 2019

Note: Actual official high and low records may vary slightly from our data, if they occured in-between our weather recording intervals... More about our weather records

Advertising

47°24'N, 9°37'E Weather History for the Previous 24 Hours

Scroll right to see more
 ConditionsComfort  
Time TempWeatherWind HumidityBarometerVisibility
8:20 am
Mon, Oct 21
54 °FPassing clouds.2 mph100%30.04 "HgN/A
7:50 am54 °FPassing clouds.2 mph100%30.04 "HgN/A
7:20 am55 °FPassing clouds.2 mph94%30.04 "HgN/A
6:50 am55 °FPassing clouds.2 mph94%30.04 "HgN/A
6:20 am57 °FPartly cloudy.6 mph88%30.01 "HgN/A
5:50 am57 °FPartly cloudy.6 mph88%30.01 "HgN/A
5:20 am59 °FOvercast.5 mph82%29.98 "HgN/A
4:50 am59 °FPassing clouds.8 mph82%29.98 "HgN/A
4:20 am59 °FPassing clouds.12 mph82%29.98 "HgN/A
3:50 am57 °FClear.9 mph88%29.95 "HgN/A
3:20 am57 °FPassing clouds.5 mph88%29.92 "HgN/A
2:50 am57 °FCool.5 mph82%29.89 "HgN/A
1:50 am57 °FClear.14 mph88%29.86 "Hg10 mi
1:20 am57 °FClear.10 mph88%29.86 "Hg10 mi
12:50 am75 °FPassing clouds.15 mph36%29.83 "HgN/A
12:20 am75 °FClear.16 mph34%29.83 "HgN/A
11:50 pm
Sun, Oct 20
75 °FMild.15 mph34%29.83 "HgN/A
11:20 pm75 °FPassing clouds.18 mph34%29.80 "HgN/A
10:50 pm75 °FPassing clouds.16 mph34%29.80 "HgN/A
10:20 pm75 °FPassing clouds.16 mph36%29.80 "HgN/A
9:50 pm75 °FPassing clouds.14 mph34%29.77 "HgN/A
9:20 pm75 °FClear.13 mph34%29.77 "HgN/A
8:50 pm75 °FMild.15 mph34%29.77 "HgN/A
8:20 pm75 °FClear.15 mph34%29.77 "HgN/A
7:50 pm75 °FPassing clouds.14 mph34%29.74 "HgN/A
7:20 pm75 °FPassing clouds.14 mph34%29.74 "HgN/A
6:50 pm75 °FPassing clouds.14 mph31%29.74 "HgN/A
6:20 pm75 °FPassing clouds.14 mph31%29.74 "HgN/A
5:50 pm77 °FPassing clouds.17 mph30%29.74 "HgN/A
5:20 pm77 °FPassing clouds.17 mph30%29.74 "HgN/A
4:50 pm77 °FPassing clouds.16 mph32%29.74 "HgN/A
4:20 pm77 °FPassing clouds.16 mph32%29.74 "HgN/A
3:50 pm77 °FPassing clouds.16 mph30%29.74 "HgN/A
3:20 pm77 °FPassing clouds.16 mph30%29.74 "HgN/A
2:50 pm55 °FScattered clouds.14 mph88%29.77 "HgN/A
2:20 pm55 °FScattered clouds.17 mph88%29.77 "HgN/A
1:50 pm55 °FScattered clouds.9 mph88%29.77 "HgN/A
1:20 pm55 °FScattered clouds.3 mph88%29.77 "HgN/A
12:50 pm54 °FScattered clouds.5 mph94%29.80 "HgN/A
12:20 pm54 °FCool.1 mph88%29.80 "HgN/A
11:50 am54 °FPartly sunny.3 mph88%29.83 "HgN/A
11:20 am54 °FLow clouds.3 mph94%29.83 "Hg6 mi
10:50 am52 °FPartly sunny.5 mph94%29.83 "Hg5 mi
10:20 am52 °FPartly sunny.5 mph94%29.83 "Hg5 mi
9:50 am52 °FPartly sunny.5 mph94%29.80 "Hg5 mi
9:20 am52 °FLow clouds.6 mph94%29.80 "Hg4 mi
Weather by CustomWeather, © 2019

See weather overview